Location: Coupvray
(48.8929°N, 2.7967°E)
Time: 20:53:45
(UTC+00:00)

SL-08 R/B - Pass Details

Date: 14 July 2020
Orbit: 674 x 739 km, 98.4° (Epoch: 14 August)

Event Time Altitude Azimuth Distance (km) Brightness Sun altitude
Exits shadow 03:01:16 - 183° (S) 2,805 6.0 -8.2°
Reaches altitude 10° 03:02:55 10° 188° (S) 2,165 5.4 -8.0°
Maximum altitude 03:07:27 45° 261° (W) 974 3.7 -7.5°
Drops below altitude 10° 03:12:08 10° 334° (NNW) 2,221 6.2 -6.9°
Sets 03:14:32 0° 341° (NNW) 3,156 7.1 -6.6°
